www.pogodaiklimat.ru

Погода и климат >> Архив погоды >> Иран >> Абадан


ПОГОДА в Абадане

  • Прогноз погоды в Абадане
  • Монитор погоды в Абадане

АРХИВ ПОГОДЫ в Абадане

Время (UTC), дата Ветер
(напр.,м/с)
 
Видим.   Явления Облачность Т
(С)
Тd
(С)
f
(%)
Тe
(С)
Тes
(С)
Комфортность P
(гПа)
Po
(гПа)
Тmin
(С)
Tmax
(С)
R
(мм)
R24
(мм)
S
(см)
12 16.07 СЗ 11 10 км ясно +45.1 +11.4 14 +44 +44 опасность
перегрева
995.3 994.5
15 16.07 СЗ 10 10 км ясно +42.1 +10.1 15 +41 +41 опасность
перегрева
995.2 994.5 +46.1
18 16.07 З 5 10 км ясно +34.9 +8.6 20 +33 +33 жарко 997.2 996.4
21 16.07 З 7 10 км ясно +34.0 +8.4 21 +33 +33 жарко 997.0 996.2
00 17.07 СЗ 6 10 км ясно +31.2 +11.0 29 +31 +31 жарко 996.5 995.8
03 17.07 СЗ 5 10 км 3/3 1200 м
[Cu hum]
+30.8 +9.5 27 +30 +31 жарко 997.2 996.4 +30.7
06 17.07 СЗ 7 10 км 3/3 1200 м
[Cu hum]
+37.4 +9.8 19 +36 +39 очень
жарко
999.0 998.2
09 17.07 З 9 10 км 4/4 1200 м
[Sc]
+40.0 +7.4 14 +38 +39 очень
жарко
998.7 998.0
12 17.07 СЗ 9 10 км 4/4 1200 м
[Sc]
+42.0 +6.2 12 +39 +40 очень
жарко
997.3 996.5
15 17.07 З 7 10 км ясно +39.6 +8.8 16 +38 +38 очень
жарко
997.5 996.8 +42.2 666
18 17.07 СЗ 4 10 км ясно +35.1 +15.4 31 +37 +37 очень
душно
998.6 997.9
21 17.07 З 4 10 км ясно +33.2 +14.8 33 +35 +35 душно 998.2 997.5
00 18.07 З 3 10 км ясно +30.9 +13.2 34 +32 +32 жарко 997.1 996.3
03 18.07 З 4 10 км 4/0
[Ac trans]
+28.6 +12.9 38 +30 +31 жарко 997.3 996.6 +28.5 666
06 18.07 СЗ 8 10 км 1/0
[Ac trans]
+36.5 +13.9 26 +37 +39 очень
жарко
997.2 996.4
09 18.07 СЗ 8 10 км 3/0
[Ac trans]
+43.7 +10.3 14 +42 +46 опасность
перегрева
997.0 996.2 666
12 18.07 С 6 10 км ясно +46.3 +8.7 11 +44 +49 опасность
перегрева
996.1 995.3
15 18.07 СЗ 9 7000 м мгла 4/0
[Ac trans Ci fib]
+44.5 +8.7 12 +43 +43 опасность
перегрева
995.8 995.0 +47.1
18 18.07 СЗ 8 10 км ясно +38.6 +10.1 18 +37 +37 очень
жарко
996.4 995.6
21 18.07 СЗ 10 10 км 3/0
[Ac trans]
+37.8 +8.6 17 +36 +36 очень
жарко
996.2 995.4
00 19.07 СЗ 8 10 км ясно +34.7 +9.9 22 +34 +34 очень
жарко
996.3 995.5
03 19.07 СЗ 8 10 км 5/0
[Ac trans]
+33.2 +9.9 24 +32 +33 жарко 996.9 996.1 +32.7
06 19.07 СЗ 12 8000 м мгла 4/0
[Ac trans]
+40.9 +11.0 17 +40 +40 очень
жарко
997.2 996.5
09 19.07 СЗ 11 8000 м мгла ясно +44.8 +13.2 16 +45 +45 опасность
перегрева
997.8 997.1
12 19.07 СЗ 11 10 км ясно +44.8 +13.2 16 +45 +45 опасность
перегрева
996.6 995.9
15 19.07 СЗ 7 10 км ясно +41.1 +14.4 21 +42 +42 опасность
перегрева
996.8 996.1 +45.7
18 19.07 З 5 10 км 1/0
[Ac trans]
+35.9 +8.9 19 +34 +34 очень
жарко
998.4 997.6
21 19.07 З 6 10 км 1/0
[Ac trans]
+34.6 +9.2 21 +33 +33 жарко 997.9 997.2
00 20.07 СЗ 6 10 км 1/0
[Ac trans]
+32.1 +12.1 29 +32 +32 жарко 997.9 997.1
03 20.07 З 5 10 км 8/8 1200 м
[Sc]
+31.6 +12.2 31 +32 +32 жарко 998.9 998.1 +30.8
06 20.07 СЗ 8 10 км 4/0
[Ac trans]
+35.5 +14.7 29 +37 +39 душно 1000.1 999.3
09 20.07 СЗ 8 10 км ясно +42.3 +14.7 20 +43 +47 опасность
перегрева
999.7 999.0 666
12 20.07 СЗ 8 10 км ясно +44.7 +8.8 12 +43 +45 опасность
перегрева
998.3 997.5
15 20.07 СЗ 6 10 км ясно +42.5 +10.0 15 +41 +41 опасность
перегрева
998.0 997.2 +45.0 666
18 20.07 СЗ 5 10 км ясно +36.7 +17.8 33 +40 +40 очень
душно
998.8 998.0
21 20.07 З 3 10 км ясно +33.0 +17.2 39 +37 +37 очень
душно
999.4 998.7
00 21.07 СЗ 3 10 км ясно +30.9 +16.9 43 +34 +34 душно 999.1 998.4
03 21.07 З 3 10 км 3/0
[Ac trans]
+28.6 +12.9 38 +30 +31 жарко 999.4 998.6 +28.3 666
06 21.07 СЗ 5 10 км ясно +37.6 +12.1 22 +37 +44 очень
жарко
1000.1 999.3
09 21.07 СЗ 6 10 км ясно +44.8 +8.9 12 +43 +51 опасность
перегрева
999.2 998.5
12 21.07 З 7 10 км ясно +46.9 +6.8 9 +44 +47 опасность
перегрева
997.4 996.6
15 21.07 З 5 10 км ясно +44.3 +10.8 14 +43 +43 опасность
перегрева
996.7 995.9 +47.1
18 21.07 СЗ 4 10 км ясно +37.8 +13.8 24 +38 +38 очень
жарко
997.2 996.4
21 21.07 З 4 10 км ясно +33.9 +15.6 33 +36 +36 душно 997.6 996.9
00 22.07 З 3 10 км ясно +32.4 +14.5 34 +34 +34 очень
жарко
997.2 996.4
03 22.07 З 3 10 км ясно +31.6 +14.4 35 +33 +34 жарко 998.2 997.4 +31.5 666
06 22.07 СЗ 6 10 км ясно +39.2 +17.9 29 +42 +48 опасность
перегрева
998.3 997.5
09 22.07 СЗ 9 10 км ясно +45.8 +15.8 18 +47 +49 опасность
перегрева
997.3 996.5
12 22.07 СЗ 8 10 км ясно +47.7 +16.4 17 +50 +52 опасность
перегрева
996.0 995.3
15 22.07 СЗ 7 10 км ясно +44.0 +16.8 21 +46 +46 опасность
перегрева
995.2 994.5 +48.0
18 22.07 СЗ 5 10 км ясно +37.6 +13.8 24 +38 +38 очень
жарко
996.0 995.3
21 22.07 СЗ 5 10 км ясно +34.6 +14.3 30 +36 +36 душно 995.6 994.8
00 23.07 З 3 10 км ясно +32.5 +12.9 30 +33 +33 жарко 995.5 994.8
03 23.07 СЗ 4 10 км 1/0
[Ac trans]
+31.8 +12.9 32 +33 +33 жарко 996.1 995.3 +31.6 666
06 23.07 СЗ 8 10 км ясно +41.5 +11.5 17 +41 +43 опасность
перегрева
996.6 995.8

 

Местоположение метеостанции Абадан (Иран): широта 30.37 долгота 48.25 высота над уровнем моря 6 м.

В архиве по умолчанию представлена погода в Абадане за последнюю неделю. Архивные данные за месяц целиком и за предыдущие месяцы, начиная с января 2011 года, Вы можете получить, выбрав интересующий диапазон дат из раскрывающегося списка и нажав кнопку "Ввод!".


*Определитесь, кто Вы:
робот инопланетянин человек

Внимание! Время в таблицах - всемирное. Для получения местного времени необходимо прибавить поправку, которая равна 3.5 ч.

Смотрите также архив погоды в соседних городах и на ближайших метеорологических станциях:

Погода в Басре аэропорт (Ирак) (48 км)
Погода в Эль-Фао (Ирак) (50 км)
Погода в Басре (Ирак) (50 км)
Погода в Абдали (Кувейт) (62 км)
Погода на Бубияне (Кувейт) (68 км)
Погода на Метеостанции Sabriyah (Кувейт) (79 км)
Погода Остров Файлака (Кувейт) (100 км)
Погода на Метеостанции Mintribah (Кувейт) (104 км)
Погода на Метеостанции Jal Aliyah (Кувейт) (106 км)
Погода в Ахвазе (Иран) (114 км)

Пояснения к столбцам:

Ветер - указаны скорость ветра в м/с - средняя за 10 мин, порывы в срок и между сроками (в фигурных скобках) и направление, откуда дует ветер: С - северный, СВ - северо-восточный, В - восточный, ЮВ - юго-восточный, Ю - южный, ЮЗ - юго-западный, З - западный, СЗ - северо-западный.
Видимость - горизонтальная дальность видимости в метрах или километрах. При видимости от 1 до 10 км при отсутствии осадков обычно наблюдается дымка, при ухудшении видимости до 1 км и менее - туман. В сухую погоду видимость может ухудшаться дымом, пылью или мглою.
Явления - указаны атмосферные явления, наблюдавшиеся в срок или в последний час перед сроком; фигурными скобками обозначены явления, наблюдавшиеся между сроками (за 1-3 часа до срока); квадратными скобками обозначены град или гололедные отложения с указанием их диаметра в мм.
Облачность - указаны через наклонную черту общая и нижняя облачность в баллах и высота нижней границы облаков в метрах; квадратными скобками обозначены формы облаков: Ci - перистые, Cs - перисто-слоистые, Cc - перисто-кучевые, Ac - высококучевые, As - высокослоистые, Sc - слоисто-кучевые, Ns - слоисто-дождевые, Cu - кучевые, Cb - кучево-дождевые. Подробнее классификацию облаков см. в Атласе облаков (PDF).
T - Температура воздуха - температура, измеренная на высоте 2 м над землей.
Td - Температура точки росы - температура, при понижении до которой содержащийся в воздухе водяной пар достигнет насыщения.
f - Относительная влажность воздуха - влажноcть воздуха, измеренная на высоте 2 м над землей.
Te - Эффективная температура - температура, которую ощущает одетый по сезону человек в тени. Характеристика душности погоды. При расчете учитывается влияние влажности воздуха и скорости ветра на теплоощущения человека.
Tes - Эффективная температура на солнце - температура, которую ощущает человек, с поправкой на солнечный нагрев. Характеристика знойности погоды. Зависит от высоты солнца над горизонтом, облачности и скорости ветра. Ночью, в пасмурную погоду, а также при ветре 12 м/с и более поправка равна нулю.
P - Атмосферное давление - приведенное к уровню моря атмосферное давление.
Po - Атмосферное давление - измеренное на уровне метеостанции атмосферное давление.
Tmin - Минимальная температура - минимум температуры воздуха на высоте 2 м над землей.
Tmax - Максимальная температура - максимум температуры воздуха на высоте 2 м над землей.
R - Количество осадков - Количество выпавших осадков за период времени, мм. При наведении курсора мыши на число - период времени, за который выпало указанное количество осадков.
R24 - Количество осадков - Количество выпавших осадков за 24 часа, мм.
S - Снежный покров - Высота снежного покрова, см. При наведении курсора мыши на число - состояние снежного покрова и степень покрытия местности в баллах.